Pagina principale
METAR-TAF:

METAR-TAF

Aeroporti :

Buochs, Svizzera

latitudine: 46-58-28N, longitudine: 8-23-49E, altezza: 449 m

Osservazione

Il bollettino è stato emesso 25 minuti fa, alle 08:50 UTC
Vento 5 kt da ovest/nord-ovest
Temperature 11°C
Umidità 87%
Pressione 1010 hPa
Visibilità 10 km o più
Nuvoloso ad un'altezza di 4100 ft
pioggia

METAR: LSZC 070850Z AUTO 29005KT 9999 RA BKN041 11/09 Q1010

Ora: 11:15 (09:15 UTC)


TAF: mancante

Osservazioni e previsioni meteorologiche di più di 4000 aeroporti (messaggi METAR e TAF).

Le stazioni disponibili sono rappresentate dai dischi gialli e rossi sulla carta.

Puntare il mouse per vedere il nome della stazione.

Clicca sopra per visualizzare le osservazioni e previsioni meteorologiche.

Per cambiare la mappa : fare clic sui pulsanti verdi con una croce nera per ingrandire, il pulsante verde con un trattino per diminuire, o sulla freccia verde per le mappe adiacenti.


METAR-TAF: